Regional Weather Roundup
Issued by NWS

Home | Current Version | Previous Version | Graphics & Text | Print | Product List | Glossary On
Versions: 1 2 3 4 5 6 7 8 9 10 11 12 13 14 15 16 17 18 19 20 21 22 23 24 25 26 27 28 29 30 31 32 33 34 35 36 37 38 39 40 41 42 43 44 45 46 47 48 49 50
000
ASUS43 KMPX 252010
RWRMN
WEATHER ROUNDUP FOR MINNESOTA
NATIONAL WEATHER SERVICE TWIN CITIES/CHANHASSEN MN
300 PM CDT FRI JUL 25 2014


NOTE: "FAIR" INDICATES FEW OR NO CLOUDS BELOW 12,000 FEET WITH NO
SIGNIFICANT WEATHER AND/OR OBSTRUCTIONS TO VISIBILITY. N/A MEANS
CURRENT SKY AND/OR WEATHER CONDITIONS ARE NOT AVAILABLE.

MNZ060>063-068>070-252100-
   Twin Cities Metro

CITY           SKY/WX    TMP DP  RH WIND       PRES   REMARKS
TWIN CITIES    CLOUDY    80  66  62 S14G21    29.78F
ST PAUL        CLOUDY    79  68  69 S7        29.79F
CRYSTAL        CLOUDY    81  67  62 SW13G21   29.77S
LAKEVILLE      CLOUDY    77  68  73 S10       29.80S
EDEN PRAIRIE   CLOUDY    80  68  66 S10G21    29.77F
SOUTH ST PAUL  CLOUDY    80  67  63 S10G16    29.79S
LAKE ELMO      CLOUDY    77  68  73 S8        29.81F
$$
MNZ001>005-007-008-013>017-022>024-027-028-252100-
   Northwest Minnesota

CITY           SKY/WX    TMP DP  RH WIND       PRES   REMARKS
BEMIDJI        CLOUDY    73  65  76 W5        29.77S
HALLOCK        SUNNY     77  66  69 NW9G20    29.70S
ROSEAU         MOSUNNY   77  68  73 S8        29.72F
WARROAD        PTSUNNY   75  68  78 S5        29.73S
THIEF RVR FALL CLOUDY    75  66  73 SW6       29.75S
CROOKSTON      MOSUNNY   75  66  73 W3        29.74F
FOSSTON        PTSUNNY   77  66  69 S3        29.76S
DETROIT LAKES  CLOUDY    73  66  78 CALM      29.78S
MOORHEAD       MOSUNNY   77  72  83 NE3       29.76S
PARK RAPIDS    PTSUNNY   78  66  66 W6        29.76F
$$
MNZ006-009>011-018-025>026-252100-
   North Central Minnesota

CITY           SKY/WX    TMP DP  RH WIND       PRES   REMARKS
BAUDETTE       CLOUDY    74  64  71 VRB3      29.74F
FLAG ISLAND    MOSUNNY   73  64  73 S6        29.71S
INTL FALLS     CLOUDY    74  64  71 SW6       29.75F
WASKISH        CLOUDY    73  66  78 SW7       29.75S
BIG FORK       MOSUNNY   72  64  78 S1        29.78S
LONGVILLE      CLOUDY    79  66  65 NW3       29.77S
GRAND RAPIDS   CLOUDY    73  64  73 NE5       29.78S
CRANE LAKE     CLOUDY    70  64  83 CALM      29.78S
ORR            CLOUDY    70  61  73 CALM      29.76F
COOK           CLOUDY    68  63  83 SW3       29.79S
$$
MNZ012-019>021-037-252100-
   Northeast Minnesota

CITY           SKY/WX    TMP DP  RH WIND       PRES   REMARKS
DULUTH         CLOUDY    69  63  81 S6        29.80F
ELY            CLOUDY    70  61  73 SW3       29.80R
HIBBING        CLOUDY    72  64  76 CALM      29.79S
EVELETH        CLOUDY    70  63  78 CALM      29.81R
DULUTH HARBOR  CLOUDY    61  55  82 N3        29.80F
TWO HARBORS    CLOUDY    68  63  83 S9        29.79S
SILVER BAY     MOSUNNY   68  64  88 S7        29.78S
GRAND MARAIS     N/A     59  54  83 E5        29.79F
G MARAIS ARPRT PTSUNNY   66  59  77 S6        29.83F
$$
MNZ029>031-032-039>041-046>048-054>057-064-252100-
   West Central Minnesota

CITY           SKY/WX    TMP DP  RH WIND       PRES   REMARKS
FERGUS FALLS   PTSUNNY   73  64  73 CALM      29.77S
WHEATON        PTSUNNY   72  66  83 NW8       29.79R
MORRIS         SUNNY     79  70  73 NW7       29.76S
ALEXANDRIA     CLOUDY    75  67  76 SW8       29.80S
ELBOW LAKE     CLOUDY    73  67  83 W3        29.77S
WADENA         PTSUNNY   73  66  78 SW5       29.78R
GLENWOOD       MOSUNNY   75  66  73 W6        29.79S
APPLETON       MOSUNNY   82  68  61 NW6       29.75S
BENSON         CLOUDY    81  70  69 W3        29.76S
ORTONVILLE     PTSUNNY   81  66  61 NW8       29.76S
MADISON        SUNNY     82  72  69 W8        29.76S
WILLMAR        FAIR      81  68  65 SW6       29.78S
$$
MNZ033>034-036-042>043-049>051-058-059-252100-
   Central Minnesota

CITY           SKY/WX    TMP DP  RH WIND       PRES   REMARKS
ST CLOUD       CLOUDY    82  67  60 SW8       29.77R
SAUK CENTRE    CLOUDY    76  67  73 W8        29.79R
PAYNESVILLE    CLOUDY    76  67  74 SE7       29.79R HAZE
AITKIN         PTSUNNY   81  70  69 SW3       29.76S
PINE RIVER     PTSUNNY   79  66  65 SW7       29.80F
BRAINERD       CLOUDY    77  66  68 W5        29.77F
STAPLES        CLOUDY    73  66  78 S3        29.78S
LONG PRAIRIE   CLOUDY    73  66  78 SW5       29.79S
LITTLE FALLS   CLOUDY    75  64  69 CALM      29.78S
LITCHFIELD     PTSUNNY   81  72  74 CALM      29.78S
BUFFALO        PTSUNNY   80  66  61 S8        29.79S
MAPLE LAKE     PTSUNNY   80  70  70 S5        29.78S
$$
MNZ037-044-045-052-053-252100-
   East Central Minnesota

CITY           SKY/WX    TMP DP  RH WIND       PRES   REMARKS
PRINCETON      CLOUDY    79  68  69 S8        29.77F
MORA           PTSUNNY   75  64  69 S6        29.79F
CAMBRIDGE      MOSUNNY   79  66  65 S5        29.77S
RUSH CITY      CLOUDY    75  67  74 S5        29.79F
MOOSE LAKE     CLOUDY    77  64  65 S6        29.76F
HINCKLEY       CLOUDY    75  68  78 S7        29.78F
CLOQUET        CLOUDY    68  63  83 E6        29.80S
MCGREGOR       CLOUDY    79  66  65 W3        29.77F
$$
MNZ071>073-080-081-089-090-097-098-252100-
   Southwest Minnesota

CITY           SKY/WX    TMP DP  RH WIND       PRES   REMARKS
MONTEVIDEO     MOSUNNY   84  73  70 W6        29.76F HX  91
GRANITE FALLS  CLOUDY    82  71  69 SW9       29.77S
CANBY          CLOUDY    82  70  67 SW5       29.78S
MARSHALL       CLOUDY    82  70  65 W10       29.77R
REDWOOD FALLS  PTSUNNY   82  69  64 SW9       29.77S
OLIVIA         PTSUNNY   81  68  65 S8        29.76S
PIPESTONE      PTSUNNY   79  70  73 W9        29.81R
WINDOM         MOSUNNY   81  66  61 S9        29.80R
WORTHINGTON    PTSUNNY   79  70  73 SW8       29.82R
JACKSON        PTSUNNY   81  66  61 SW6       29.81S
TRACY          MOSUNNY   82  71  69 W6        29.78S
SLAYTON        MOSUNNY   81  69  68 CALM      29.81R
$$
MNZ065>067-074>077-082>085-091>093-252100-
   South Central Minnesota

CITY           SKY/WX    TMP DP  RH WIND       PRES   REMARKS
MANKATO        CLOUDY    79  64  61 SW13G18   29.79F
NEW ULM        SUNNY     79  68  69 S10       29.78F
ST JAMES       PTSUNNY   81  66  61 S10       29.80S
FAIRMONT       CLOUDY    79  61  53 S12       29.80S
GLENCOE        CLOUDY    81  66  60 S10       29.78S
FARIBAULT      CLOUDY    82  64  54 S8        29.81S
OWATONNA       PTSUNNY   81  66  61 SW10      29.82R
WASECA         CLOUDY    77  63  61 S13       29.82F
ALBERT LEA     MOSUNNY   81  66  61 S10G23    29.81S
$$
MNZ078>079-086>088-094>096-252100-
   Southeast Minnesota

CITY           SKY/WX    TMP DP  RH WIND       PRES   REMARKS
ROCHESTER      PTSUNNY   79  68  69 S10       29.85S
RED WING       CLOUDY    81  66  61 S6        29.80S
STANTON        CLOUDY    80  67  64 SW8       29.79F
DODGE CENTER   MOSUNNY   79  68  69 S10G16    29.83S
WINONA         CLOUDY    77  64  65 S3        29.85S
AUSTIN         MOSUNNY   81  68  65 SW13      29.82S
PRESTON        PTSUNNY   76  70  81 S12G17    29.86S
$$
ABBREVIATIONS USED IN REMARKS
   TC - TEMPERATURES IN CELSIUS
  WCI - WIND CHILL INDEX
   HX - HEAT INDEX
  VSB - VISIBILITY
$$



USA.gov is the U.S. government's official web portal to all federal, state and local government web resources and services.